Вернуться в каталог

STARLINK-37332

АктивенСвязьVLEO
NORAD 69150·PAYLOAD·🇺🇸 United States

Запущен May 21, 2026 с Cape Canaveral Space Force Station

Loading…

Ближайшие Пролёты (ближайшие 24 часа)

TLE

СвежийSource: CelesTrak SupGP

Эпоха: Sep 14, 2026, 22:54 UTC

1 69150C 26111C   26257.95465278  .00026720  00000+0  78956-3 0  2571
2 69150  53.1576  91.9663 0001208  82.3340 262.1039 15.34373094    18

Отслеживайте STARLINK-37332 в реальном времени с AllMySat

Download on the App Store